Temperature
17 18 18 19 19 19 18 18 18 19 18 17 18 19 20 20 20 19 19 19 19 18 17 17 18 17 17 17 16 15 15 14 14 13 12 11 11 10 10 10 9 9 9 9
17 18 19 19 18 17 17 17 18 19 17 17 18 18 20 20 20 19 19 19 19 18 16 17 17 17 17 16 16 15 15 14 14 13 12 12 11 10 10 10 9 9 9 9
18 18 18 17 16 17 17 17 18 18 18 17 16 19 20 20 19 18 17 17 17 16 16 16 17 17 17 16 16 15 15 14 14 13 12 12 11 10 10 10 9 9 9 9
18 17 16 16 17 17 17 17 17 17 17 18 17 18 20 21 20 19 18 17 16 15 15 14 15 16 16 16 16 15 15 14 14 13 12 12 11 11 10 10 10 9 9 9
17 16 16 17 18 17 18 16 16 16 17 17 17 17 20 20 20 21 20 17 16 14 14 14 15 15 16 15 15 15 14 14 13 13 12 12 11 10 10 10 10 9 9 9
17 16 17 17 17 16 15 15 15 15 16 16 18 17 19 21 20 20 20 18 16 14 13 13 13 14 15 15 14 14 14 13 13 12 12 11 11 11 10 10 10 10 9 9
15 15 15 15 15 15 16 17 16 16 16 17 16 16 18 21 20 19 18 17 15 13 12 12 13 14 14 14 14 14 13 13 13 12 12 11 11 11 10 10 10 10 9 9
15 15 15 15 17 16 16 17 17 17 17 17 15 16 19 20 18 16 16 15 14 13 12 12 12 13 14 14 13 13 13 13 12 12 11 11 11 10 10 10 10 10 9 9
17 16 15 15 16 17 16 16 18 17 16 16 17 18 19 19 19 17 16 16 15 13 13 12 12 13 13 13 13 13 12 12 12 12 11 11 11 10 10 10 10 9 9 8
18 16 14 14 14 15 17 17 16 16 16 16 17 17 19 19 19 19 18 17 15 13 13 13 13 13 13 13 13 12 12 12 12 11 11 11 11 10 10 10 9 9 9 8
18 16 13 13 15 15 15 15 16 17 17 16 17 18 19 19 19 18 18 16 15 14 14 14 14 13 13 13 12 12 12 11 11 11 11 11 10 10 10 9 9 9 8 8
17 17 15 15 15 15 17 17 17 16 16 16 17 18 19 18 17 17 17 16 15 15 14 14 14 14 13 13 13 12 12 11 11 11 11 10 10 10 9 9 9 8 8 7
16 16 15 14 13 13 14 16 16 17 17 16 16 18 18 17 17 16 16 16 15 15 14 14 14 14 14 13 13 12 12 12 11 11 10 10 10 9 9 9 8 8 7 7
16 16 16 16 16 15 14 14 15 16 16 16 16 17 19 18 18 18 17 16 15 14 14 14 14 14 14 13 13 12 12 11 11 10 10 10 9 9 9 8 8 7 7 6
16 16 16 16 15 15 15 15 14 15 16 16 17 17 18 19 19 18 17 16 14 14 14 14 14 14 14 13 13 12 12 11 11 10 10 9 9 8 8 8 7 7 6 6
15 15 15 14 14 14 14 14 15 15 16 16 16 16 18 18 17 16 16 15 14 14 14 14 14 14 14 14 13 12 12 11 11 10 10 9 8 8 7 7 7 6 6 5
14 14 14 14 13 12 13 15 14 14 14 15 15 17 18 17 16 16 15 14 14 14 14 14 14 14 14 13 13 12 12 11 10 10 9 8 8 7 7 6 6 6 5 5
14 14 14 13 12 12 16 16 16 15 15 15 16 17 17 17 15 14 14 14 14 14 14 14 14 14 13 13 12 12 11 11 10 9 8 8 7 7 6 6 5 5 5 4
14 14 13 12 13 14 14 13 13 14 15 16 15 16 16 13 13 14 14 14 14 14 14 14 14 13 13 12 12 11 11 10 9 8 8 7 7 6 6 5 5 4 4 3
12 14 13 12 13 13 16 15 13 14 15 16 15 15 15 12 14 16 14 14 14 13 13 13 13 13 12 12 11 11 10 9 8 8 7 7 6 6 5 5 4 4 3 3
11 12 13 13 13 15 15 12 13 14 16 15 14 14 13 12 15 14 14 13 13 13 13 12 12 12 11 11 10 10 9 8 8 7 6 6 5 5 5 4 4 3 3 2
12 12 12 13 13 14 13 11 14 17 15 14 13 13 12 12 12 13 13 13 12 12 12 12 11 11 11 10 9 9 8 7 7 6 6 5 5 4 4 3 3 3 2 2
14 14 14 14 15 15 12 14 15 15 14 14 14 14 14 13 12 12 12 12 12 12 11 11 11 10 10 9 8 8 7 7 6 5 5 4 4 4 3 3 2 2 1 1
11 11 12 13 13 12 11 12 13 14 14 15 15 15 14 13 13 12 12 11 11 11 11 10 10 9 8 8 7 7 6 6 5 5 4 4 3 3 2 2 1 1 0 -0
12 10 12 13 12 11 10 12 13 14 14 14 14 14 14 13 13 12 12 11 11 10 10 9 9 8 7 7 6 6 5 5 4 4 3 3 3 2 2 1 1 0 -0 -1
10 11 13 14 13 14 14 14 14 14 14 14 14 13 13 13 12 12 11 11 10 9 9 8 7 7 6 6 5 5 4 4 3 3 3 2 2 1 1 0 -0 -0 -1 -1
Wind_Speed
9 11 14 14 13 9 6 8 10 9 5 6 13 18 19 18 16 17 17 16 16 16 12 10 11 10 11 11 13 15 16 16 14 12 11 10 9 7 6 6 7 7 6 6
10 18 16 9 8 8 9 11 12 10 4 5 13 20 20 17 16 15 15 15 15 13 11 11 11 11 12 12 14 15 16 16 16 13 11 9 8 6 6 6 6 7 7 6
21 10 11 11 10 11 12 13 12 10 7 6 9 13 11 10 9 10 11 12 12 12 13 12 13 12 12 12 13 13 15 16 16 14 10 8 6 5 5 6 5 6 7 7
19 11 9 13 14 14 13 10 10 9 8 7 4 9 12 9 10 7 5 5 7 8 10 11 12 13 12 11 11 13 14 15 15 15 13 14 11 9 9 8 7 7 7 7
15 14 14 16 15 14 8 3 6 6 8 10 8 9 10 7 7 4 4 4 5 5 7 10 11 12 11 10 10 11 13 14 15 15 15 15 12 9 8 8 9 8 7 7
11 8 12 13 8 10 8 6 3 3 6 10 9 9 9 5 4 7 8 8 5 3 5 8 9 10 10 10 10 11 13 14 14 14 14 14 13 12 11 11 10 8 6 6
13 9 6 6 8 8 10 9 6 6 7 7 3 7 10 8 7 9 12 11 7 3 5 8 10 11 11 12 11 12 13 13 14 14 13 13 13 13 13 12 10 9 7 6
20 15 15 11 13 11 15 14 10 6 6 4 5 8 8 8 8 8 8 8 5 3 5 8 10 11 11 12 12 13 13 13 13 13 12 12 11 10 9 10 9 9 7 7
19 15 9 12 8 13 11 13 11 8 5 7 8 7 9 8 5 3 3 3 2 2 6 8 10 11 11 12 12 13 13 13 13 13 12 12 11 10 10 10 9 7 6 6
12 12 8 8 6 5 8 10 7 9 7 8 9 10 7 5 4 3 3 3 1 2 5 8 9 10 11 11 11 12 12 13 12 12 11 9 11 10 10 9 9 8 8 7
14 11 8 10 16 17 12 12 10 9 9 7 7 6 5 6 4 4 4 4 2 2 5 7 9 10 10 11 11 12 12 12 12 12 11 11 11 10 10 9 9 9 8 8
17 12 9 10 5 8 17 17 18 13 11 9 8 8 3 6 5 5 5 4 3 2 4 6 8 10 11 12 12 13 13 13 13 12 12 11 11 11 10 10 9 9 8 8
17 13 11 7 6 6 12 16 19 16 12 12 13 10 3 4 6 6 6 5 3 3 4 6 8 10 11 12 13 13 13 13 12 12 12 12 12 11 11 10 9 9 8 8
17 14 17 18 10 13 14 17 18 18 15 17 19 18 12 11 10 9 8 7 5 4 5 6 7 9 10 11 12 13 13 13 12 12 13 13 13 12 11 10 9 9 8 8
13 16 16 13 8 11 14 19 22 24 24 20 20 21 21 18 16 13 11 8 7 6 6 7 8 8 9 10 11 12 12 12 13 13 13 13 11 10 10 9 9 8 8 7
13 13 15 13 10 10 10 15 21 24 23 25 23 22 19 18 15 14 13 10 9 7 6 6 7 7 9 10 10 11 12 12 13 13 12 11 11 10 10 9 9 8 7 7
16 12 13 13 10 7 14 19 19 16 18 18 22 23 17 14 13 13 11 9 9 7 6 6 6 7 7 8 9 10 10 11 12 12 11 11 11 10 10 9 8 8 8 7
18 16 10 8 10 12 11 8 18 20 20 21 19 18 16 15 11 9 9 9 9 7 5 5 5 5 5 6 7 8 9 10 10 10 10 10 10 10 9 8 8 8 7 7
15 15 9 8 11 10 7 7 11 15 16 20 22 21 15 6 5 9 9 9 7 5 4 4 4 5 5 6 7 8 9 9 9 9 10 10 10 9 8 8 8 7 6 7
8 12 10 8 10 11 8 7 9 9 10 12 17 19 13 8 7 7 5 6 6 5 5 5 5 6 6 6 8 8 8 8 8 8 8 8 8 8 8 7 6 5 6 7
14 11 16 13 12 10 4 8 13 10 7 4 11 13 12 12 8 3 7 7 7 6 6 6 7 6 6 7 8 8 7 7 7 7 7 7 7 6 6 5 5 5 6 7
18 15 15 13 13 10 9 13 13 7 3 5 7 9 11 10 6 6 7 7 8 7 7 7 7 7 6 7 7 7 7 6 7 7 7 6 5 4 4 4 5 5 6 8
16 15 11 13 13 3 15 12 9 4 6 6 6 7 10 9 8 8 7 8 8 7 7 7 7 8 6 6 6 7 6 7 7 6 5 4 4 3 4 4 5 6 6 7
8 5 8 8 9 7 11 8 6 7 6 6 6 8 11 10 10 10 9 8 8 7 7 7 8 8 6 6 5 6 7 6 6 5 4 3 3 3 4 4 5 6 7 8
10 12 9 10 5 4 8 13 11 10 7 6 6 7 10 11 11 10 9 9 8 7 7 7 7 7 7 6 6 6 6 6 5 4 2 2 2 4 5 6 6 8 9 9
9 11 13 11 10 9 9 11 13 12 12 11 9 8 8 10 11 11 9 8 8 8 8 7 7 7 7 7 6 5 5 4 4 2 2 2 3 4 5 6 8 9 12 14
Wind_Direction
181 205 216 216 220 238 245 255 267 274 275 270 275 281 283 281 268 261 258 252 244 239 231 209 201 197 195 194 193 190 186 185 182 182 183 183 185 182 181 180 185 186 187 183
192 222 223 216 207 216 232 253 267 279 260 264 286 285 283 276 268 265 264 258 249 241 221 205 198 193 193 190 189 186 186 183 183 184 183 185 176 176 172 165 171 176 177 173
211 218 203 191 194 212 231 245 261 275 293 257 291 286 274 276 270 270 265 261 255 241 227 208 197 192 190 188 186 183 183 181 183 178 169 155 148 148 164 169 166 168 171 170
221 202 175 197 212 217 239 236 247 261 279 285 302 299 292 292 293 280 278 269 262 243 229 211 197 191 188 184 180 179 177 179 179 176 176 175 180 184 186 176 167 163 168 168
211 199 196 210 216 209 233 190 211 242 263 277 257 267 282 288 281 300 322 315 302 258 226 207 196 188 181 173 173 173 173 176 177 181 182 184 187 183 168 163 163 163 161 163
210 194 211 220 211 201 158 140 143 206 249 262 252 244 276 266 273 310 320 325 321 272 214 198 184 176 171 167 168 170 173 175 178 181 183 187 182 171 164 168 168 168 162 163
203 201 194 175 156 166 184 204 227 232 226 245 185 236 257 272 286 294 302 311 316 263 199 185 179 178 174 172 171 173 175 175 178 182 184 186 181 176 176 175 177 174 171 174
200 208 197 191 197 184 196 208 222 244 248 245 200 239 257 287 294 289 289 296 297 228 195 190 187 184 180 178 177 177 179 177 178 181 182 181 177 177 179 179 177 180 179 177
199 205 181 192 197 189 185 214 233 255 271 269 251 252 278 274 279 296 308 311 299 212 193 192 189 189 186 184 184 183 181 179 179 180 177 176 176 176 172 171 173 174 172 166
194 193 171 168 158 199 210 184 182 215 239 249 251 249 246 246 271 316 347 352 346 197 194 193 193 193 192 190 187 187 187 184 180 179 176 174 175 173 169 169 171 171 170 170
191 182 160 174 198 193 181 192 205 213 231 244 256 245 220 238 263 292 315 328 318 228 200 196 195 194 192 190 188 189 190 186 182 181 177 175 173 170 171 173 173 173 174 179
194 197 192 193 192 232 208 206 203 213 219 228 253 259 191 233 256 268 284 298 294 253 211 199 195 192 193 194 193 192 191 190 188 183 180 178 173 172 175 176 175 176 180 186
180 194 187 187 206 193 211 215 216 225 238 231 239 251 172 225 245 250 263 280 278 246 217 202 197 198 199 198 197 196 195 193 188 183 182 179 178 179 182 179 177 180 185 190
182 198 206 212 207 191 202 208 210 214 228 236 237 249 244 246 254 263 269 274 273 252 224 212 207 205 203 202 200 198 197 193 187 185 186 186 186 185 184 180 180 184 189 196
193 209 213 223 191 183 201 207 208 216 228 239 247 250 253 256 263 270 274 271 262 252 232 219 213 207 202 201 201 199 196 192 188 188 190 191 187 182 180 180 183 185 193 203
197 207 203 208 193 196 213 216 213 221 231 240 251 259 259 262 264 263 263 259 253 247 235 222 212 207 203 200 199 196 195 191 188 191 192 186 181 178 180 183 184 188 198 207
187 185 192 208 191 200 235 224 215 218 223 230 240 248 253 251 248 251 255 248 244 242 229 218 210 205 202 199 195 193 190 184 187 191 188 182 180 180 181 181 187 196 206 215
184 189 193 177 170 219 236 214 217 224 231 227 236 248 250 250 255 253 249 244 239 227 214 204 195 187 183 180 180 177 174 177 182 185 184 180 179 180 180 185 196 206 215 226
192 184 182 184 211 237 243 206 196 209 236 230 232 243 246 237 255 253 233 225 223 209 192 175 165 160 156 158 160 159 163 170 176 182 182 180 178 177 181 193 204 213 224 236
183 194 189 187 209 228 227 182 173 182 243 231 219 231 228 186 229 242 170 175 172 158 147 142 137 137 139 144 151 155 160 167 175 177 177 174 176 179 189 201 211 221 232 245
180 194 205 204 219 238 205 146 155 192 231 186 200 213 197 199 222 141 140 147 147 139 135 135 133 131 133 143 150 153 157 166 165 162 161 165 173 184 194 204 216 229 241 252
183 190 203 207 218 225 163 158 187 209 134 166 183 192 192 194 166 147 150 147 146 141 139 138 133 126 131 145 151 150 153 150 148 151 155 162 171 175 193 213 230 242 251 262
196 196 194 202 216 197 171 190 202 171 179 183 182 184 178 175 177 168 162 156 151 147 143 142 137 130 132 144 153 149 144 145 148 151 155 160 171 190 212 232 245 255 258 264
198 185 184 201 220 208 201 210 205 200 200 187 181 174 174 176 172 167 161 158 155 152 149 147 144 140 138 143 145 139 139 147 152 155 158 169 196 224 238 245 250 256 261 267
174 175 190 208 209 204 223 219 215 205 202 188 179 182 181 171 169 168 164 163 160 153 151 152 151 146 142 142 137 136 143 149 153 157 169 201 234 251 259 257 256 259 262 263
175 178 190 209 198 193 207 207 202 199 201 193 179 175 179 177 168 163 160 158 156 153 151 150 148 145 143 143 138 137 143 152 158 178 214 243 257 264 268 275 276 253 255 268
Height
1521 1522 1520 1519 1521 1522 1524 1525 1524 1522 1523 1525 1518 1512 1505 1504 1503 1501 1500 1499 1500 1500 1503 1504 1506 1508 1511 1513 1516 1518 1521 1525 1528 1531 1534 1538 1541 1543 1546 1547 1549 1550 1551 1551
1519 1515 1513 1517 1521 1524 1525 1525 1522 1520 1522 1523 1515 1508 1499 1496 1495 1494 1493 1493 1493 1495 1496 1497 1500 1503 1506 1508 1511 1514 1517 1520 1524 1527 1531 1534 1538 1540 1542 1544 1546 1547 1548 1548
1507 1508 1513 1518 1521 1523 1522 1522 1520 1521 1519 1519 1518 1502 1493 1489 1490 1490 1489 1488 1488 1489 1490 1492 1494 1497 1500 1503 1506 1509 1512 1516 1520 1523 1527 1531 1534 1537 1539 1541 1542 1544 1545 1545
1504 1508 1513 1514 1515 1517 1518 1517 1520 1521 1521 1514 1517 1510 1490 1485 1485 1484 1484 1484 1483 1484 1484 1486 1488 1492 1495 1499 1502 1505 1509 1512 1516 1520 1523 1527 1530 1532 1535 1537 1539 1541 1542 1542
1499 1504 1507 1509 1508 1513 1513 1517 1520 1520 1519 1516 1512 1512 1491 1483 1481 1479 1480 1481 1481 1480 1480 1481 1484 1487 1491 1495 1498 1502 1505 1509 1512 1516 1520 1524 1527 1530 1532 1534 1536 1537 1538 1539
1495 1502 1502 1502 1507 1511 1516 1519 1521 1521 1517 1517 1506 1508 1492 1479 1478 1477 1477 1478 1478 1477 1477 1478 1481 1484 1488 1491 1495 1499 1502 1506 1509 1513 1517 1520 1523 1526 1528 1531 1533 1534 1535 1536
1497 1499 1501 1502 1506 1512 1513 1513 1517 1516 1514 1507 1507 1508 1491 1475 1478 1478 1477 1476 1476 1475 1475 1476 1478 1481 1485 1488 1492 1496 1500 1503 1507 1510 1514 1517 1520 1523 1526 1528 1530 1531 1532 1533
1489 1493 1494 1497 1496 1501 1504 1504 1508 1511 1505 1501 1509 1502 1481 1475 1477 1477 1476 1475 1474 1473 1473 1474 1476 1479 1483 1486 1490 1494 1497 1500 1504 1507 1511 1514 1517 1520 1522 1524 1526 1528 1529 1530
1475 1482 1487 1491 1492 1494 1501 1501 1496 1502 1505 1507 1494 1487 1479 1473 1473 1474 1474 1473 1472 1472 1472 1473 1475 1478 1481 1485 1488 1491 1494 1498 1501 1504 1507 1511 1514 1516 1519 1521 1523 1525 1526 1526
1464 1476 1486 1491 1493 1494 1492 1493 1503 1503 1506 1503 1491 1487 1478 1471 1470 1471 1471 1471 1471 1471 1471 1472 1474 1476 1480 1483 1486 1489 1492 1495 1498 1501 1504 1507 1510 1513 1516 1518 1519 1521 1522 1523
1461 1471 1486 1488 1485 1486 1493 1495 1491 1491 1492 1494 1490 1480 1468 1468 1469 1470 1470 1470 1470 1470 1470 1471 1473 1475 1478 1480 1483 1486 1489 1492 1495 1498 1501 1504 1507 1510 1512 1514 1516 1517 1518 1519
1457 1462 1474 1478 1480 1480 1479 1479 1483 1489 1490 1489 1485 1477 1465 1468 1469 1470 1469 1469 1468 1468 1469 1469 1471 1473 1475 1477 1480 1483 1485 1488 1492 1495 1498 1501 1503 1506 1508 1510 1512 1513 1514 1515
1453 1459 1472 1480 1484 1484 1480 1476 1476 1476 1478 1481 1483 1473 1464 1467 1467 1467 1468 1467 1467 1467 1467 1467 1468 1469 1471 1474 1476 1479 1481 1484 1488 1491 1494 1496 1499 1502 1504 1506 1508 1509 1510 1510
1446 1448 1452 1457 1455 1462 1471 1473 1474 1476 1476 1473 1471 1466 1461 1462 1463 1464 1465 1465 1465 1464 1464 1465 1465 1466 1468 1470 1472 1475 1477 1480 1483 1486 1489 1492 1495 1497 1500 1502 1503 1505 1505 1506
1444 1445 1445 1447 1452 1457 1459 1462 1467 1468 1463 1464 1459 1460 1457 1457 1458 1460 1461 1461 1461 1461 1461 1461 1462 1463 1464 1466 1468 1470 1473 1476 1479 1482 1484 1487 1491 1493 1495 1497 1499 1500 1501 1501
1440 1442 1446 1451 1455 1457 1458 1457 1459 1460 1459 1457 1457 1454 1450 1453 1455 1456 1456 1457 1457 1457 1457 1457 1458 1459 1460 1462 1463 1466 1468 1471 1474 1477 1480 1483 1486 1488 1491 1493 1494 1495 1496 1496
1436 1441 1445 1448 1455 1459 1456 1449 1452 1453 1452 1452 1452 1447 1446 1449 1450 1451 1451 1452 1452 1452 1453 1453 1454 1455 1457 1458 1460 1462 1464 1466 1469 1472 1475 1478 1481 1484 1486 1488 1489 1490 1490 1490
1430 1435 1438 1446 1456 1459 1437 1435 1438 1442 1442 1444 1442 1439 1441 1443 1445 1446 1446 1447 1447 1448 1449 1450 1451 1453 1454 1455 1457 1459 1461 1463 1465 1467 1470 1473 1476 1479 1481 1483 1484 1485 1485 1485
1425 1431 1438 1444 1443 1437 1434 1435 1435 1438 1435 1433 1435 1435 1437 1441 1442 1441 1440 1441 1443 1445 1446 1448 1449 1450 1452 1453 1455 1456 1458 1459 1461 1463 1466 1469 1472 1475 1477 1479 1480 1480 1480 1479
1428 1426 1432 1438 1439 1437 1424 1425 1428 1434 1432 1424 1427 1429 1432 1439 1438 1434 1436 1437 1439 1441 1444 1445 1447 1448 1450 1451 1453 1454 1455 1457 1459 1461 1463 1466 1468 1471 1473 1474 1475 1475 1474 1473
1425 1427 1426 1428 1430 1421 1418 1424 1428 1432 1422 1418 1420 1423 1427 1431 1430 1432 1433 1435 1437 1440 1442 1444 1445 1447 1449 1450 1451 1452 1454 1455 1457 1459 1461 1463 1466 1468 1469 1470 1470 1469 1468 1466
1409 1415 1419 1421 1424 1421 1417 1421 1419 1413 1413 1415 1417 1419 1422 1425 1427 1429 1431 1433 1436 1438 1440 1442 1444 1446 1447 1448 1450 1451 1452 1453 1455 1457 1459 1461 1463 1464 1465 1465 1464 1463 1462 1460
1397 1398 1402 1405 1405 1404 1407 1407 1408 1409 1411 1413 1414 1417 1419 1422 1424 1427 1429 1432 1434 1437 1439 1441 1443 1444 1445 1447 1448 1449 1451 1452 1454 1455 1457 1458 1459 1460 1460 1460 1459 1457 1455 1453
1396 1399 1399 1402 1401 1401 1402 1403 1404 1407 1409 1410 1412 1414 1416 1419 1421 1425 1427 1430 1433 1435 1437 1439 1441 1442 1444 1445 1446 1448 1449 1451 1452 1454 1455 1455 1456 1456 1455 1454 1452 1451 1448 1446
1385 1393 1394 1394 1395 1398 1398 1398 1400 1403 1406 1408 1410 1412 1414 1417 1419 1422 1425 1428 1431 1433 1435 1437 1439 1440 1442 1443 1445 1446 1447 1449 1450 1451 1451 1451 1451 1450 1449 1447 1446 1443 1441 1439
1380 1382 1384 1384 1386 1389 1390 1392 1396 1399 1401 1404 1406 1409 1411 1414 1417 1420 1423 1426 1429 1431 1433 1435 1437 1438 1440 1441 1443 1444 1445 1446 1447 1448 1447 1447 1446 1445 1443 1440 1438 1435 1433 1430